• In Uzbekistan
  • List of Countries
  • For 7 days
  • Water Temperature
  • Satellite Maps
  • Weather Map
  • Weather Widgets
  • user-avatar
    Login

    Hourly Weather Canillo

    Today, 20 October, Saturday

    Time Temperature Precipitation Wind Pressure Humidity
    00:00 +8°C° 0.2 mm 1 mps 621 mmHg 91%
    01:00 +8°C° 0.1 mm 1 mps 621 mmHg 91%
    02:00 +8°C° 0.1 mm 1 mps 621 mmHg 90%
    03:00 +8°C° 0.1 mm 1 mps 621 mmHg 90%
    04:00 +8°C° 0.2 mm 1 mps 621 mmHg 90%
    05:00 +7°C° 0.2 mm 1 mps 622 mmHg 89%
    06:00 +7°C° 0.2 mm 1 mps 622 mmHg 89%
    07:00 +9°C° 0.3 mm 1 mps 623 mmHg 85%
    08:00 +10°C° 0.3 mm 1 mps 623 mmHg 81%
    09:00 +11°C° 0.3 mm 1 mps 624 mmHg 76%
    10:00 +12°C° 0.3 mm 1 mps 624 mmHg 73%
    11:00 +13°C° 0.3 mm 1 mps 625 mmHg 69%
    12:00 +14°C° 0.3 mm 1 mps 625 mmHg 66%
    13:00 +14°C° 0.6 mm 1 mps 625 mmHg 67%
    14:00 +13°C° 0.6 mm 1 mps 625 mmHg 68%
    15:00 +13°C° 0.6 mm 1 mps 624 mmHg 68%
    16:00 +12°C° 0.4 mm 1 mps 624 mmHg 74%
    17:00 +9°C° 0.4 mm 0 mps 624 mmHg 80%
    18:00 +8°C° 0.4 mm 0 mps 623 mmHg 85%
    19:00 +9°C° 0 mm 1 mps 623 mmHg 86%
    20:00 +8°C° 0 mm 1 mps 623 mmHg 86%
    21:00 +8°C° 0 mm 1 mps 623 mmHg 86%
    22:00 +7°C° 0 mm 1 mps 623 mmHg 85%
    23:00 +7°C° 0 mm 1 mps 623 mmHg 85%

    Tomorrow, 21 October, Sunday

    Time Temperature Precipitation Wind Pressure Humidity
    00:00 +7°C° 0 mm 1 mps 623 mmHg 84%
    01:00 +7°C° 0 mm 1 mps 623 mmHg 83%
    02:00 +7°C° 0 mm 1 mps 622 mmHg 82%
    03:00 +7°C° 0 mm 1 mps 622 mmHg 82%
    04:00 +7°C° 0 mm 1 mps 622 mmHg 81%
    05:00 +6°C° 0 mm 1 mps 622 mmHg 80%
    06:00 +6°C° 0 mm 1 mps 622 mmHg 80%
    07:00 +8°C° 0 mm 1 mps 623 mmHg 74%
    08:00 +11°C° 0 mm 1 mps 624 mmHg 68%
    09:00 +13°C° 0 mm 1 mps 625 mmHg 62%
    10:00 +14°C° 0 mm 1 mps 625 mmHg 58%
    11:00 +15°C° 0 mm 1 mps 625 mmHg 53%
    12:00 +16°C° 0 mm 2 mps 625 mmHg 49%
    13:00 +15°C° 0 mm 2 mps 625 mmHg 51%
    14:00 +15°C° 0 mm 2 mps 624 mmHg 52%
    15:00 +15°C° 0 mm 2 mps 623 mmHg 54%
    16:00 +13°C° 0 mm 2 mps 622 mmHg 63%
    17:00 +10°C° 0 mm 2 mps 622 mmHg 72%
    18:00 +7°C° 0 mm 2 mps 621 mmHg 81%
    19:00 +7°C° 0 mm 2 mps 621 mmHg 78%
    20:00 +6°C° 0 mm 2 mps 621 mmHg 74%
    21:00 +6°C° 0 mm 2 mps 621 mmHg 71%
    22:00 +6°C° 0 mm 2 mps 620 mmHg 69%
    23:00 +6°C° 0 mm 2 mps 620 mmHg 67%

    Day after tomorrow, 22 October, Monday

    Time Temperature Precipitation Wind Pressure Humidity
    00:00 +5°C° 0 mm 2 mps 620 mmHg 64%
    01:00 +5°C° 0 mm 2 mps 620 mmHg 64%
    02:00 +5°C° 0 mm 2 mps 620 mmHg 65%
    03:00 +5°C° 0 mm 2 mps 620 mmHg 65%
    04:00 +5°C° 0 mm 2 mps 620 mmHg 64%
    05:00 +4°C° 0 mm 2 mps 620 mmHg 63%
    06:00 +4°C° 0 mm 2 mps 620 mmHg 61%
    07:00 +6°C° 0 mm 2 mps 621 mmHg 57%
    08:00 +8°C° 0 mm 2 mps 622 mmHg 53%
    09:00 +10°C° 0 mm 2 mps 623 mmHg 49%
    10:00 +12°C° 0 mm 2 mps 624 mmHg 46%
    11:00 +12°C° 0 mm 2 mps 624 mmHg 44%
    12:00 +12°C° 0 mm 3 mps 625 mmHg 41%
    13:00 +12°C° 0 mm 3 mps 624 mmHg 44%
    14:00 +11°C° 0 mm 3 mps 624 mmHg 47%
    15:00 +11°C° 0 mm 3 mps 624 mmHg 50%
    16:00 +9°C° 0 mm 3 mps 623 mmHg 59%
    17:00 +7°C° 0 mm 3 mps 623 mmHg 67%
    18:00 +4°C° 0 mm 3 mps 622 mmHg 75%
    19:00 +3°C° 0 mm 3 mps 622 mmHg 75%
    20:00 +3°C° 0 mm 3 mps 622 mmHg 74%
    21:00 +3°C° 0 mm 3 mps 623 mmHg 73%
    22:00 +2°C° 0 mm 3 mps 623 mmHg 73%
    23:00 +2°C° 0 mm 3 mps 623 mmHg 73%

    23 October, Tuesday

    Time Temperature Precipitation Wind Pressure Humidity
    00:00 +2°C° 0 mm 3 mps 623 mmHg 73%
    01:00 +1°C° 0 mm 3 mps 622 mmHg 72%
    02:00 +1°C° 0 mm 3 mps 622 mmHg 71%
    03:00 +1°C° 0 mm 3 mps 622 mmHg 70%
    04:00 +1°C° 0 mm 3 mps 622 mmHg 69%
    05:00 0°C° 0 mm 3 mps 622 mmHg 67%
    06:00 0°C° 0 mm 3 mps 622 mmHg 66%
    07:00 +2°C° 0 mm 3 mps 623 mmHg 62%
    08:00 +4°C° 0 mm 3 mps 624 mmHg 58%
    09:00 +7°C° 0 mm 3 mps 625 mmHg 54%
    10:00 +8°C° 0 mm 3 mps 625 mmHg 50%
    11:00 +9°C° 0 mm 3 mps 625 mmHg 47%
    12:00 +10°C° 0 mm 3 mps 625 mmHg 44%
    13:00 +9°C° 0 mm 3 mps 625 mmHg 45%
    14:00 +9°C° 0 mm 3 mps 625 mmHg 47%
    15:00 +8°C° 0 mm 4 mps 624 mmHg 48%
    16:00 +7°C° 0 mm 3 mps 624 mmHg 58%
    17:00 +4°C° 0 mm 3 mps 623 mmHg 69%
    18:00 +2°C° 0 mm 3 mps 623 mmHg 79%
    19:00 +1°C° 0 mm 3 mps 623 mmHg 80%
    20:00 +1°C° 0 mm 3 mps 623 mmHg 81%
    21:00 +1°C° 0 mm 3 mps 623 mmHg 82%
    22:00 +1°C° 0 mm 3 mps 623 mmHg 79%
    23:00 0°C° 0 mm 3 mps 622 mmHg 77%

    24 October, Wednesday

    Time Temperature Precipitation Wind Pressure Humidity
    00:00 0°C° 0 mm 3 mps 622 mmHg 75%
    01:00 0°C° 0 mm 3 mps 622 mmHg 71%
    02:00 0°C° 0 mm 3 mps 622 mmHg 67%
    03:00 0°C° 0 mm 3 mps 622 mmHg 63%
    04:00 0°C° 0 mm 3 mps 622 mmHg 61%
    05:00 0°C° 0 mm 3 mps 622 mmHg 60%
    06:00 0°C° 0 mm 3 mps 622 mmHg 58%
    07:00 +2°C° 0 mm 3 mps 623 mmHg 53%
    08:00 +4°C° 0 mm 3 mps 624 mmHg 49%
    09:00 +7°C° 0 mm 3 mps 624 mmHg 44%
    10:00 +8°C° 0 mm 3 mps 625 mmHg 44%
    11:00 +10°C° 0 mm 3 mps 625 mmHg 44%
    12:00 +11°C° 0 mm 4 mps 625 mmHg 43%
    13:00 +10°C° 0 mm 3 mps 625 mmHg 46%
    14:00 +10°C° 0 mm 3 mps 624 mmHg 49%
    15:00 +10°C° 0 mm 3 mps 624 mmHg 51%
    16:00 +8°C° 0 mm 3 mps 623 mmHg 58%
    17:00 +5°C° 0 mm 3 mps 623 mmHg 64%
    18:00 +4°C° 0 mm 2 mps 622 mmHg 70%
    19:00 +4°C° 0 mm 2 mps 622 mmHg 70%
    20:00 +4°C° 0 mm 2 mps 622 mmHg 69%
    21:00 +3°C° 0 mm 3 mps 622 mmHg 69%
    22:00 +4°C° 0 mm 2 mps 622 mmHg 71%
    23:00 +4°C° 0 mm 2 mps 622 mmHg 72%

    25 October, Thursday

    Time Temperature Precipitation Wind Pressure Humidity
    00:00 +4°C° 0 mm 2 mps 622 mmHg 74%
    01:00 +4°C° 0 mm 2 mps 622 mmHg 73%
    02:00 +3°C° 0 mm 2 mps 622 mmHg 73%
    03:00 +3°C° 0 mm 2 mps 621 mmHg 72%
    04:00 +3°C° 0 mm 2 mps 621 mmHg 71%
    05:00 +3°C° 0 mm 2 mps 621 mmHg 71%
    06:00 +3°C° 0 mm 2 mps 621 mmHg 70%
    07:00 +5°C° 0 mm 2 mps 622 mmHg 64%
    08:00 +7°C° 0 mm 2 mps 623 mmHg 58%
    09:00 +11°C° 0 mm 1 mps 624 mmHg 51%
    10:00 +12°C° 0 mm 2 mps 625 mmHg 48%
    11:00 +13°C° 0 mm 2 mps 625 mmHg 45%
    12:00 +15°C° 0 mm 2 mps 625 mmHg 42%
    13:00 +14°C° 0 mm 1 mps 625 mmHg 44%
    14:00 +14°C° 0 mm 1 mps 624 mmHg 46%
    15:00 +14°C° 0 mm 1 mps 624 mmHg 49%
    16:00 +11°C° 0 mm 1 mps 623 mmHg 57%
    17:00 +9°C° 0 mm 1 mps 622 mmHg 66%
    18:00 +7°C° 0 mm 1 mps 621 mmHg 75%
    19:00 +6°C° 0 mm 1 mps 621 mmHg 72%
    20:00 +6°C° 0 mm 1 mps 621 mmHg 69%
    21:00 +6°C° 0 mm 1 mps 621 mmHg 67%
    22:00 +6°C° 0 mm 1 mps 621 mmHg 62%
    23:00 +6°C° 0 mm 1 mps 621 mmHg 57%
    Show more